Powrót do katalogu

CZ-6A DEB

AktywnyPO
NORAD 61127·DEBRIS·🇨🇳 China

Wystrzelony Aug 6, 2024 z Taiyuan Satellite Launch Center

Loading…

Następne Przeloty (najbliższe 24 godziny)

TLE

ŚwieżeSource: Space-Track

Epoka: Sep 14, 2026, 23:24 UTC

1 61127U 24140PV  26257.97516289  .00001644  00000-0  37316-3 0  9995
2 61127  89.0435 264.5094 0086351 325.4969  34.0652 14.53340753109419

Śledź CZ-6A DEB w czasie rzeczywistym z AllMySat

Download on the App Store